ヒル彗星

P/2008 L2 ( Hill )

English version
Home page
Updated on April 11, 2009

---------------------------------------------------------------------

・ プロフィール

発見日 2008年6月12日
発見光度 18.3等
発見者 R. E. Hill (Catalina Sky Survey)

・ 写真集

・ 軌道要素

The following orbital elements are taken from MPC 65054:

Epoch 2008 Aug. 2.0 TT = JDT 2454680.5
T 2008 Aug. 18.5940 TT                                  MPC
q   2.317379             (2000.0)            P               Q
n   0.0670510      Peri.  141.3142      +0.9614019      +0.0603550
a   6.000661       Node   217.9842      -0.0744198      +0.9963201
e   0.613813       Incl.   25.8606      +0.2648925      +0.0608566
P  14.7
From 652 observations 2008 June 12-2009 Jan. 21, mean residual 0".5.

・ 星図

・ 光度変化

        m1 = 4.3 + 5 logΔ + 30.0 log r(t - 50)

---------------------------------------------------------------------

軌道要素はMPCのEphemerides and Orbital Elementsに掲載されたものです。
星図はステラナビゲータ Ver.8 (アストロアーツ) で作成したものです。
光度グラフはComet for Windowsで作成したものです。

---------------------------------------------------------------------

Copyright(C) Seiichi Yoshida (comet@aerith.net). All rights reserved.